Time,TemperatureF,DewpointF,PressureIn,WindDirection,WindDirectionDegrees,WindSpeedMPH,WindSpeedGustMPH,Humidity,HourlyPrecipIn,Conditions,Clouds,dailyrainin,SoftwareType,DateUTC
2013-02-16 00:00:00,35.3,33.8,29.97,WSW,248,0.0,4.0,94,0.04,,---,0.00,VWS V14.01,2013-02-16 05:00:00,
2013-02-16 00:15:00,35.3,34.0,29.97,WSW,248,0.0,1.0,95,0.05,,---,0.01,VWS V14.01,2013-02-16 05:15:00,
2013-02-16 00:30:00,35.3,34.0,29.97,WSW,248,0.0,1.0,95,0.03,,---,0.01,VWS V14.01,2013-02-16 05:30:00,
2013-02-16 00:45:00,35.3,34.0,29.97,WSW,248,0.0,2.0,95,0.02,,---,0.01,VWS V14.01,2013-02-16 05:45:00,
2013-02-16 01:00:00,35.3,34.3,29.97,WSW,248,0.0,1.0,96,0.02,,---,0.02,VWS V14.01,2013-02-16 06:00:00,
2013-02-16 01:15:00,35.2,34.2,29.96,WSW,248,0.0,1.0,96,0.02,,---,0.02,VWS V14.01,2013-02-16 06:15:00,
2013-02-16 01:30:00,35.0,34.0,29.95,WSW,248,0.0,1.0,96,0.01,,---,0.02,VWS V14.01,2013-02-16 06:30:00,
2013-02-16 01:45:00,35.0,34.0,29.95,WSW,248,0.0,1.0,96,0.02,,---,0.03,VWS V14.01,2013-02-16 06:45:00,
2013-02-16 02:00:00,35.0,34.0,29.95,WSW,248,0.0,1.0,96,0.02,,---,0.03,VWS V14.01,2013-02-16 07:00:00,
2013-02-16 02:15:00,34.9,33.9,29.95,WSW,248,0.0,2.0,96,0.01,,---,0.03,VWS V14.01,2013-02-16 07:15:00,
2013-02-16 02:30:00,34.9,33.9,29.94,WSW,248,0.0,2.0,96,0.01,,---,0.03,VWS V14.01,2013-02-16 07:30:00,
2013-02-16 02:45:00,34.9,34.1,29.94,WSW,248,0.0,2.0,97,0.01,,---,0.03,VWS V14.01,2013-02-16 07:45:00,
2013-02-16 03:00:00,34.7,33.9,29.94,WSW,248,0.0,1.0,97,0.00,,---,0.03,VWS V14.01,2013-02-16 08:00:00,
2013-02-16 03:15:00,34.7,33.9,29.93,WSW,248,0.0,0.0,97,0.00,,---,0.03,VWS V14.01,2013-02-16 08:15:00,
2013-02-16 03:30:00,34.6,33.8,29.92,WSW,248,0.0,1.0,97,0.00,,---,0.03,VWS V14.01,2013-02-16 08:30:00,
2013-02-16 03:45:00,34.4,33.6,29.93,WSW,248,0.0,1.0,97,0.00,,---,0.03,VWS V14.01,2013-02-16 08:45:00,
2013-02-16 04:00:00,34.6,33.8,29.93,WSW,248,0.0,2.0,97,0.00,,---,0.03,VWS V14.01,2013-02-16 09:00:00,
2013-02-16 04:15:00,34.6,33.8,29.93,WSW,248,0.0,1.0,97,0.00,,---,0.03,VWS V14.01,2013-02-16 09:15:00,
2013-02-16 04:30:00,34.7,33.9,29.94,WSW,248,0.0,3.0,97,0.00,,---,0.03,VWS V14.01,2013-02-16 09:30:00,
2013-02-16 04:45:00,34.6,33.8,29.93,NW,315,1.0,3.0,97,0.00,,---,0.03,VWS V14.01,2013-02-16 09:45:00,
2013-02-16 05:00:00,34.4,33.6,29.93,West,270,0.0,1.0,97,0.00,,---,0.03,VWS V14.01,2013-02-16 10:00:00,
2013-02-16 05:15:00,34.3,33.5,29.93,West,270,0.0,0.0,97,0.00,,---,0.03,VWS V14.01,2013-02-16 10:15:00,
2013-02-16 05:30:00,34.0,33.0,29.94,West,270,0.0,1.0,96,0.00,,---,0.03,VWS V14.01,2013-02-16 10:30:00,
2013-02-16 05:45:00,33.7,32.7,29.94,West,270,0.0,1.0,96,0.00,,---,0.03,VWS V14.01,2013-02-16 10:45:00,
2013-02-16 06:00:00,33.4,32.4,29.93,West,270,0.0,2.0,96,0.00,,---,0.03,VWS V14.01,2013-02-16 11:00:00,
2013-02-16 06:15:00,33.2,31.9,29.93,NNW,338,1.0,3.0,95,0.00,,---,0.03,VWS V14.01,2013-02-16 11:15:00,
2013-02-16 06:30:00,33.1,31.3,29.93,NNE,22,1.0,4.0,93,0.00,,---,0.03,VWS V14.01,2013-02-16 11:30:00,
2013-02-16 06:45:00,33.2,30.9,29.94,WSW,248,1.0,3.0,91,0.00,,---,0.03,VWS V14.01,2013-02-16 11:45:00,
2013-02-16 07:00:00,33.1,30.5,29.94,WSW,248,0.0,2.0,90,0.00,,---,0.03,VWS V14.01,2013-02-16 12:00:00,
2013-02-16 07:15:00,32.9,30.0,29.94,WSW,248,1.0,10.0,89,0.00,,---,0.03,VWS V14.01,2013-02-16 12:15:00,
2013-02-16 07:30:00,33.1,29.7,29.95,NE,45,1.0,10.0,87,0.00,,---,0.03,VWS V14.01,2013-02-16 12:30:00,
2013-02-16 07:45:00,33.1,29.4,29.95,NNW,338,1.0,4.0,86,0.00,,---,0.03,VWS V14.01,2013-02-16 12:45:00,
2013-02-16 08:00:00,33.1,28.2,29.96,NE,45,1.0,6.0,82,0.00,,---,0.03,VWS V14.01,2013-02-16 13:00:00,
2013-02-16 08:15:00,33.4,28.2,29.96,NE,45,0.0,3.0,81,0.00,,---,0.03,VWS V14.01,2013-02-16 13:15:00,
2013-02-16 08:30:00,33.5,27.7,29.96,WNW,292,1.0,5.0,79,0.00,,---,0.03,VWS V14.01,2013-02-16 13:30:00,
2013-02-16 08:45:00,33.5,26.1,29.95,NE,45,2.0,7.0,74,0.00,,---,0.03,VWS V14.01,2013-02-16 13:45:00,
2013-02-16 09:00:00,33.8,25.7,29.95,NW,315,1.0,9.0,72,0.00,,---,0.03,VWS V14.01,2013-02-16 14:00:00,
2013-02-16 09:15:00,33.7,25.0,29.95,NNW,338,2.0,7.0,70,0.00,,---,0.03,VWS V14.01,2013-02-16 14:15:00,
2013-02-16 09:30:00,33.5,24.1,29.95,WNW,292,2.0,7.0,68,0.00,,---,0.03,VWS V14.01,2013-02-16 14:30:00,
2013-02-16 09:45:00,33.2,23.8,29.95,NNW,338,3.0,10.0,68,0.00,,---,0.03,VWS V14.01,2013-02-16 14:45:00,
2013-02-16 10:00:00,33.5,23.7,29.95,NNW,338,2.0,10.0,67,0.00,,---,0.03,VWS V14.01,2013-02-16 15:00:00,
2013-02-16 10:15:00,34.0,24.6,29.94,NW,315,2.0,9.0,68,0.00,,---,0.03,VWS V14.01,2013-02-16 15:15:00,
2013-02-16 10:30:00,34.1,24.0,29.94,NE,45,3.0,12.0,66,0.00,,---,0.03,VWS V14.01,2013-02-16 15:30:00,
2013-02-16 10:45:00,34.7,24.5,29.93,NE,45,3.0,7.0,66,0.00,,---,0.03,VWS V14.01,2013-02-16 15:45:00,
2013-02-16 11:00:00,34.7,24.1,29.93,NE,45,3.0,6.0,65,0.00,,---,0.03,VWS V14.01,2013-02-16 16:00:00,
2013-02-16 11:15:00,35.3,24.4,29.93,NW,315,2.0,7.0,64,0.00,,---,0.03,VWS V14.01,2013-02-16 16:15:00,
2013-02-16 11:30:00,35.8,25.9,29.92,North,0,2.0,5.0,67,0.00,,---,0.03,VWS V14.01,2013-02-16 16:30:00,
2013-02-16 11:45:00,34.7,24.1,29.92,WNW,292,3.0,10.0,65,0.00,,---,0.03,VWS V14.01,2013-02-16 16:45:00,
2013-02-16 12:00:00,35.0,24.4,29.91,West,270,3.0,10.0,65,0.00,,---,0.03,VWS V14.01,2013-02-16 17:00:00,
2013-02-16 12:15:00,35.6,25.4,29.91,North,0,2.0,8.0,66,0.00,,---,0.03,VWS V14.01,2013-02-16 17:15:00,
2013-02-16 12:30:00,35.5,25.3,29.90,WNW,292,4.0,10.0,66,0.00,,---,0.03,VWS V14.01,2013-02-16 17:30:00,
2013-02-16 12:45:00,35.8,25.2,29.90,WNW,292,3.0,10.0,65,0.00,,---,0.03,VWS V14.01,2013-02-16 17:45:00,
2013-02-16 13:00:00,35.6,25.0,29.89,NW,315,3.0,9.0,65,0.00,,---,0.03,VWS V14.01,2013-02-16 18:00:00,
2013-02-16 13:15:00,35.9,25.7,29.88,WNW,292,3.0,9.0,66,0.00,,---,0.03,VWS V14.01,2013-02-16 18:15:00,
2013-02-16 13:30:00,36.8,25.0,29.88,WNW,292,3.0,11.0,62,0.00,,---,0.03,VWS V14.01,2013-02-16 18:30:00,
2013-02-16 13:45:00,36.8,24.2,29.87,West,270,4.0,12.0,60,0.00,,---,0.03,VWS V14.01,2013-02-16 18:45:00,
2013-02-16 14:00:00,36.5,24.0,29.86,NW,315,4.0,11.0,60,0.00,,---,0.03,VWS V14.01,2013-02-16 19:00:00,
2013-02-16 14:15:00,36.3,24.1,29.86,West,270,3.0,11.0,61,0.00,,---,0.03,VWS V14.01,2013-02-16 19:15:00,
2013-02-16 14:30:00,36.5,24.0,29.85,West,270,4.0,10.0,60,0.00,,---,0.03,VWS V14.01,2013-02-16 19:30:00,
2013-02-16 14:45:00,36.3,23.0,29.86,NW,315,1.0,5.0,58,0.00,,---,0.03,VWS V14.01,2013-02-16 19:45:00,
2013-02-16 15:00:00,35.8,22.5,29.86,NW,315,3.0,7.0,58,0.00,,---,0.03,VWS V14.01,2013-02-16 20:00:00,
2013-02-16 15:15:00,35.8,22.5,29.87,WNW,292,3.0,9.0,58,0.00,,---,0.03,VWS V14.01,2013-02-16 20:15:00,
2013-02-16 15:30:00,35.5,22.2,29.86,NW,315,3.0,9.0,58,0.00,,---,0.03,VWS V14.01,2013-02-16 20:30:00,
2013-02-16 15:45:00,35.3,22.0,29.85,WNW,292,3.0,7.0,58,0.00,,---,0.03,VWS V14.01,2013-02-16 20:45:00,
2013-02-16 16:00:00,35.2,21.9,29.85,WNW,292,1.0,4.0,58,0.00,,---,0.03,VWS V14.01,2013-02-16 21:00:00,
2013-02-16 16:15:00,34.9,20.8,29.85,West,270,2.0,8.0,56,0.00,,---,0.03,VWS V14.01,2013-02-16 21:15:00,
2013-02-16 16:30:00,34.7,21.0,29.85,NW,315,1.0,6.0,57,0.00,,---,0.03,VWS V14.01,2013-02-16 21:30:00,
2013-02-16 16:45:00,34.4,20.3,29.85,WNW,292,2.0,6.0,56,0.00,,---,0.03,VWS V14.01,2013-02-16 21:45:00,
2013-02-16 17:00:00,34.1,20.1,29.85,WNW,292,3.0,7.0,56,0.00,,---,0.03,VWS V14.01,2013-02-16 22:00:00,
2013-02-16 17:15:00,33.7,20.1,29.85,West,270,2.0,6.0,57,0.00,,---,0.03,VWS V14.01,2013-02-16 22:15:00,
2013-02-16 17:30:00,33.4,19.4,29.85,WNW,292,2.0,7.0,56,0.00,,---,0.03,VWS V14.01,2013-02-16 22:30:00,
2013-02-16 17:45:00,33.2,19.6,29.85,NW,315,1.0,6.0,57,0.00,,---,0.03,VWS V14.01,2013-02-16 22:45:00,
2013-02-16 18:00:00,32.9,19.4,29.85,West,270,1.0,5.0,57,0.00,,---,0.03,VWS V14.01,2013-02-16 23:00:00,
2013-02-16 18:15:00,32.8,18.8,29.85,WNW,292,1.0,7.0,56,0.00,,---,0.03,VWS V14.01,2013-02-16 23:15:00,
2013-02-16 18:30:00,32.7,19.2,29.85,WNW,292,1.0,5.0,57,0.00,,---,0.03,VWS V14.01,2013-02-16 23:30:00,
2013-02-16 18:45:00,32.5,18.1,29.84,WNW,292,1.0,7.0,55,0.00,,---,0.03,VWS V14.01,2013-02-16 23:45:00,
2013-02-16 19:00:00,32.5,16.9,29.83,NW,315,2.0,7.0,52,0.00,,---,0.03,VWS V14.01,2013-02-17 00:00:00,
2013-02-16 19:15:00,32.4,16.3,29.83,NW,315,2.0,10.0,51,0.00,,---,0.03,VWS V14.01,2013-02-17 00:15:00,
2013-02-16 19:30:00,32.2,15.7,29.83,WNW,292,3.0,10.0,50,0.00,,---,0.03,VWS V14.01,2013-02-17 00:30:00,
2013-02-16 19:45:00,32.1,15.6,29.82,NW,315,3.0,9.0,50,0.00,,---,0.03,VWS V14.01,2013-02-17 00:45:00,
2013-02-16 20:00:00,31.8,15.8,29.83,West,270,1.0,6.0,51,0.00,,---,0.03,VWS V14.01,2013-02-17 01:00:00,
2013-02-16 20:15:00,31.8,15.8,29.82,NW,315,1.0,6.0,51,0.00,,---,0.03,VWS V14.01,2013-02-17 01:15:00,
2013-02-16 20:30:00,31.8,15.8,29.82,WNW,292,1.0,5.0,51,0.00,,---,0.03,VWS V14.01,2013-02-17 01:30:00,
2013-02-16 20:45:00,31.8,15.8,29.82,NW,315,1.0,7.0,51,0.00,,---,0.03,VWS V14.01,2013-02-17 01:45:00,
2013-02-16 21:07:00,31.8,15.8,29.82,NNW,342,0.0,2.0,51,0.00,,---,0.03,VWS V14.01,2013-02-17 02:07:00,
2013-02-16 21:09:00,31.6,16.0,29.82,WNW,290,1.0,4.0,52,0.00,,---,0.03,VWS V14.01,2013-02-17 02:09:00,
2013-02-16 21:11:00,31.6,15.6,29.82,WNW,302,2.0,5.0,51,0.00,,---,0.03,VWS V14.01,2013-02-17 02:11:00,
2013-02-16 21:15:00,31.6,15.6,29.82,WNW,290,0.0,5.0,51,0.00,,---,0.03,VWS V14.01,2013-02-17 02:15:00,
2013-02-16 21:17:00,31.6,16.0,29.82,WNW,292,0.0,3.0,52,0.00,,---,0.03,VWS V14.01,2013-02-17 02:17:00,
2013-02-16 21:21:00,31.5,15.5,29.82,North,355,4.0,6.0,51,0.00,,---,0.03,VWS V14.01,2013-02-17 02:21:00,
2013-02-16 21:27:00,31.5,15.5,29.82,NW,306,3.0,7.0,51,0.00,,---,0.03,VWS V14.01,2013-02-17 02:27:00,
2013-02-16 21:30:00,31.3,15.7,29.82,NW,315,2.0,7.0,52,0.00,,---,0.03,VWS V14.01,2013-02-17 02:30:00,
2013-02-16 21:45:00,31.2,15.2,29.82,NW,315,3.0,11.0,51,0.00,,---,0.03,VWS V14.01,2013-02-17 02:45:00,
2013-02-16 22:00:00,30.6,13.3,29.81,WNW,292,5.0,14.0,48,0.00,,---,0.03,VWS V14.01,2013-02-17 03:00:00,
2013-02-16 22:15:00,30.3,13.0,29.80,WNW,292,4.0,13.0,48,0.00,,---,0.03,VWS V14.01,2013-02-17 03:15:00,
2013-02-16 22:30:00,30.0,12.7,29.79,WNW,292,3.0,9.0,48,0.00,,---,0.03,VWS V14.01,2013-02-17 03:30:00,
2013-02-16 22:45:00,29.8,12.0,29.79,NW,315,3.0,10.0,47,0.00,,---,0.03,VWS V14.01,2013-02-17 03:45:00,
2013-02-16 23:00:00,29.5,11.3,29.79,NW,315,4.0,14.0,46,0.00,,---,0.03,VWS V14.01,2013-02-17 04:00:00,
2013-02-16 23:15:00,29.3,10.6,29.78,NNW,338,4.0,13.0,45,0.00,,---,0.03,VWS V14.01,2013-02-17 04:15:00,
2013-02-16 23:30:00,29.1,9.4,29.78,NNW,338,4.0,14.0,43,0.00,,---,0.03,VWS V14.01,2013-02-17 04:30:00,
2013-02-16 23:45:00,28.8,9.6,29.77,WNW,292,3.0,9.0,44,0.00,,---,0.03,VWS V14.01,2013-02-17 04:45:00,